Regional Weather Roundup
Issued by NWS

Home | Current Version | Previous Version | Text Only | Print | Product List | Glossary On
Versions: 1 2 3 4 5 6 7 8 9 10 11 12 13 14 15 16 17 18 19 20 21 22 23 24 25 26 27 28 29 30 31 32 33 34 35 36 37 38 39 40 41 42 43 44 45 46 47 48 49 50
000
ASUS44 KOUN 062210
RWROK

WEATHER ROUNDUP FOR OKLAHOMA
NATIONAL WEATHER SERVICE NORMAN OK
400 PM CST FRI MAR 06 2015

NOTE: "FAIR" INDICATES FEW OR NO CLOUDS BELOW 12,000 FEET WITH NO
      SIGNIFICANT WEATHER AND/OR OBSTRUCTIONS TO VISIBILITY.

OKZ001>007-009>012-014-015-017-062300-
NORTHWEST OKLAHOMA AND THE PANHANDLE

CITY           SKY/WX    TMP DP  RH WIND       PRES   REMARKS
GAGE           SUNNY     63  27  25 SW12      30.27F
ENID/WOODRING  SUNNY     59  30  33 S21G29    30.32F
$$

OKZ016-021>023-033>039-044-045-062300-
SOUTHWEST OKLAHOMA

CITY           SKY/WX    TMP DP  RH WIND       PRES   REMARKS
LAWTON/REGL    SUNNY     55  29  36 S12       30.39F
LAWTON/FT SILL SUNNY     56  30  37 SW14      30.37F
FREDERICK      SUNNY     56  28  34 SW9       30.35F
CLINTON        SUNNY     56  29  35 SW17      30.34F
HOBART         SUNNY     55  30  38 S17G24    30.36F
ALTUS AFB      SUNNY     58  29  33 S14G23    30.36F
$$

OKZ018>020-024>031-062300-
CENTRAL OKLAHOMA

CITY           SKY/WX    TMP DP  RH WIND       PRES   REMARKS
OKLAHOMA CITY  SUNNY     57  24  28 SW16      30.37F
OKC/WILEY POST SUNNY     56  27  32 SW14G21   30.37F
OKC/TINKER AFB SUNNY     55  27  33 SW14      30.36F
STILLWATER     SUNNY     59  25  27 SW13      30.34F
GUTHRIE        SUNNY     57  27  31 SW14G22   30.35F
$$

OKZ008-013-054>072-062300-
NORTHEAST OKLAHOMA

CITY           SKY/WX    TMP DP  RH WIND       PRES   REMARKS
TULSA          SUNNY     57  24  28 S15       30.35F
TULSA/JONES    SUNNY     57  25  29 SW10G17   30.37F
PONCA CITY     SUNNY     58  25  28 SW16G24   30.32F
BARTLESVILLE   SUNNY     59  26  28 SW14      30.34F
MUSKOGEE       SUNNY     53  27  36 S13       30.42F
$$

OKZ032-040>043-046>053-073>077-062300-
SOUTH CENTRAL/SOUTHEAST OKLAHOMA

CITY           SKY/WX    TMP DP  RH WIND       PRES   REMARKS
ARDMORE/DWNTWN SUNNY     54  25  32 SW6       30.43F
MCALESTER      MOSUNNY   52  27  38 SW8       30.43F
$$



USA.gov is the U.S. government's official web portal to all federal, state and local government web resources and services.